Location: ??????
(41.3164°N, 22.6615°E)
Time: 12:04:03
(UTC+00:00)

QB50P2 - Visible Passes

Search period start: 28 June 2022 00:00
Search period end: 08 July 2022 00:00
Orbit: 589 x 607 km, 97.9° (Epoch: 28 June)

Date Brightness Start Highest point End Pass type
(mag) Time Alt. Az. Time Alt. Az. Time Alt. Az.
28 Jun ? 01:13:36 10° NNW 01:15:50 14° WNW 01:17:32 12° W visible
28 Jun ? 23:46:53 10° NNE 23:51:07 71° ESE 23:51:24 68° SE visible
29 Jun ? 01:24:59 10° NW 01:26:10 11° WNW 01:27:22 10° WNW visible
29 Jun ? 23:57:19 10° NNE 00:01:35 88° W 00:01:58 73° SSW visible
30 Jun ? 22:35:26 10° E 22:35:50 10° E 22:35:50 10° E visible
01 Jul ? 00:07:49 10° N 00:12:02 67° WNW 00:12:32 60° WSW visible
01 Jul ? 22:44:23 10° ENE 22:46:24 14° E 22:46:24 14° E visible
02 Jul ? 00:18:21 10° N 00:22:28 50° WNW 00:23:06 46° WSW visible
02 Jul ? 22:54:12 10° NE 22:56:57 18° E 22:56:57 18° E visible
03 Jul ? 00:28:56 10° N 00:32:53 39° WNW 00:33:39 35° W visible
03 Jul ? 23:04:15 10° NE 23:07:30 23° E 23:07:30 23° E visible
04 Jul ? 00:39:34 10° N 00:43:17 30° WNW 00:44:13 27° W visible
04 Jul ? 23:14:25 10° NE 23:18:04 29° E 23:18:04 29° E visible
05 Jul ? 00:50:16 10° NNW 00:53:40 24° WNW 00:54:46 21° W visible
05 Jul ? 23:24:40 10° NNE 23:28:36 38° E 23:28:36 38° E visible
06 Jul ? 01:01:03 10° NNW 01:04:02 19° WNW 01:05:18 17° W visible
06 Jul ? 23:35:00 10° NNE 23:39:09 50° E 23:39:09 50° E visible
07 Jul ? 01:11:58 10° NNW 01:14:22 15° WNW 01:15:51 13° W visible
07 Jul ? 23:45:22 10° NNE 23:49:36 67° E 23:49:41 67° ESE visible
